Terminal Aerodrome Forecast
Issued by NWS

Home | Current Version | Previous Version | Text Only | Print | Product List | Glossary On
Versions: 1 2 3 4 5 6 7 8 9 10 11 12 13 14 15
000
FTUS42 TJSJ 261133
TAFIST
TAF
TIST 261133Z 2612/2712 16008KT P6SM FEW025
     FM261800 18005KT P6SM SCT024 SCT035 BKN050
     FM262300 15006KT P6SM FEW020 FEW025=

USA.gov is the U.S. government's official web portal to all federal, state and local government web resources and services.